Probability
0 0 0 0 0 0 0 0 0 0 0 0 0 0 0 0 1 1 1 1 2 3 3 2 1 0 0 0 0 1 2 3 1 0 0 0 0 0 0 0 0 0 0
0 0 0 0 0 0 0 0 0 0 0 0 0 0 0 0 0 0 0 0 1 2 2 2 1 0 0 0 0 1 2 2 1 0 0 0 0 0 0 0 0 0 0
0 0 0 0 0 0 0 0 0 0 0 0 0 0 0 0 0 0 0 0 0 1 1 1 0 0 0 0 0 0 1 1 1 0 0 0 0 0 0 0 0 0 0
0 0 0 0 0 0 0 0 0 0 0 0 0 0 0 0 0 0 0 0 0 0 0 0 0 0 0 0 0 0 0 0 0 0 0 0 0 0 0 0 0 0 0
0 0 0 0 0 0 0 0 0 0 0 0 0 0 0 0 0 0 0 0 0 0 0 0 0 0 0 0 0 0 0 0 0 0 0 0 0 0 0 0 0 0 0
0 0 0 0 0 0 0 0 0 0 0 0 0 0 0 0 0 0 0 0 0 0 0 0 0 0 0 0 0 0 0 0 0 0 0 0 0 0 0 0 0 0 0
0 0 0 0 0 0 0 0 0 0 0 0 0 0 0 0 0 0 0 0 0 0 0 0 0 0 0 0 0 0 0 0 0 0 0 0 0 0 0 0 0 0 0
0 0 0 0 0 0 0 0 0 0 0 0 0 0 0 0 0 0 0 0 0 0 0 0 0 0 0 0 0 0 0 0 0 0 0 0 0 0 0 0 0 0 0
0 0 0 0 0 0 0 0 0 0 0 0 0 0 0 0 0 0 0 0 0 0 0 0 0 0 0 0 0 0 0 0 0 0 0 0 0 0 0 0 0 0 0
0 0 0 1 0 0 0 0 0 0 0 0 0 0 0 0 0 0 0 0 0 0 0 0 0 0 0 0 1 1 1 1 0 0 0 0 0 0 0 0 0 0 0
1 0 0 0 0 0 0 0 0 0 0 0 0 0 0 0 0 0 0 0 0 0 0 0 0 0 0 1 1 3 3 1 0 0 0 0 0 0 0 0 0 0 0
2 1 0 0 0 0 0 0 0 1 1 1 0 0 0 0 0 0 0 0 0 0 0 0 0 1 1 1 1 2 2 1 0 0 0 0 0 0 0 0 0 0 0
3 2 1 1 1 0 0 0 0 1 1 1 0 0 0 0 0 0 0 0 0 0 0 0 1 1 0 0 0 1 1 0 0 0 0 0 0 0 0 0 0 0 0
3 3 3 4 3 2 1 1 1 1 1 1 0 0 0 0 0 0 0 0 0 0 0 0 0 0 0 0 0 0 0 0 0 0 0 0 0 0 0 0 0 0 0
4 5 6 8 8 6 5 5 4 3 3 2 1 0 0 0 0 0 0 0 0 0 0 0 0 0 1 1 0 0 0 0 0 0 0 0 0 0 0 0 0 0 0
8 8 9 11 12 10 8 7 6 5 4 3 2 1 0 0 0 0 0 0 0 0 0 0 0 1 2 1 0 0 0 0 0 0 0 0 0 0 0 0 0 0 0
14 12 11 12 13 13 10 8 6 4 4 5 4 2 1 1 0 0 1 1 0 0 0 0 0 1 1 1 0 0 0 0 0 0 1 1 0 0 0 0 1 1 1
21 18 13 10 12 13 12 9 6 5 5 5 5 3 2 1 0 1 2 2 1 0 0 0 0 0 0 0 0 0 0 0 0 2 3 2 1 1 1 1 2 2 2
28 25 17 10 10 14 14 13 9 7 7 6 5 4 2 1 0 1 2 2 1 0 0 0 0 0 0 0 0 0 0 0 1 4 5 4 3 3 2 2 2 3 3
36 32 23 15 14 16 16 15 13 11 10 9 6 3 1 0 0 0 1 1 0 0 0 0 0 0 0 0 0 0 0 1 2 4 5 4 3 2 3 3 3 3 2
46 42 33 26 21 19 16 15 15 14 14 11 7 3 2 1 0 0 1 1 0 0 1 1 1 0 0 0 0 0 0 1 2 3 4 5 4 2 2 5 7 6 5
53 49 43 35 28 21 17 16 16 17 15 11 6 5 5 3 2 1 2 2 1 0 1 2 1 1 0 0 0 0 0 0 1 2 3 5 4 2 2 5 8 10 9
57 54 48 43 35 25 20 18 17 17 15 10 9 11 10 7 5 4 3 2 1 1 1 1 1 2 2 2 2 2 1 0 0 0 1 2 2 2 2 3 6 9 10
57 57 56 52 43 32 25 21 17 15 13 12 15 17 16 13 9 6 4 3 2 2 2 1 2 5 4 3 4 5 4 2 1 1 0 0 0 0 1 2 3 6 7
54 57 61 60 50 36 27 22 17 13 11 13 16 19 19 18 14 10 7 5 5 5 4 3 5 7 6 4 4 5 5 3 2 2 1 0 0 0 0 1 3 5 7
49 53 59 62 52 36 25 21 17 13 11 13 15 18 20 20 18 15 10 9 8 5 4 4 6 8 6 4 4 4 4 4 3 3 2 1 0 0 0 1 3 4 6
Wind_Speed
14 14 13 13 13 13 13 13 13 14 14 15 15 15 15 16 16 16 17 17 17 17 18 18 18 18 17 16 16 16 16 17 18 19 18 18 16 15 14 15 15 13 16
17 15 14 13 13 13 13 13 13 14 14 14 14 15 15 15 15 15 16 16 17 17 17 17 17 17 16 15 15 14 14 15 16 17 18 16 15 14 13 14 15 11 15
16 15 14 13 13 13 13 13 13 13 14 14 14 14 14 14 15 15 15 16 16 16 16 16 16 16 15 14 13 13 12 13 13 14 14 11 12 14 15 16 16 15 15
16 14 13 13 12 12 12 12 12 13 13 13 13 13 14 14 14 14 15 15 15 15 15 15 15 15 14 13 11 10 9 9 9 9 7 8 9 14 15 15 14 14 14
16 14 12 12 12 12 11 11 12 12 12 12 13 13 13 13 13 14 14 14 14 14 14 14 14 13 12 11 9 7 6 4 4 6 9 9 8 12 14 14 14 14 14
16 15 13 12 12 11 11 11 11 11 12 12 12 12 13 13 13 13 13 13 13 13 14 13 13 12 11 9 6 4 2 1 1 7 9 10 8 11 13 13 13 13 13
16 15 13 13 12 11 11 11 11 11 11 11 11 11 12 12 12 12 12 12 12 12 12 12 12 11 9 7 5 3 3 3 2 7 9 9 9 11 12 12 12 12 12
16 15 13 13 13 12 11 10 10 10 10 10 10 10 11 11 11 11 11 11 11 11 11 11 10 9 7 5 3 3 5 4 5 10 10 9 11 11 12 12 11 11 11
15 15 12 12 11 11 11 10 10 9 9 9 9 9 9 10 10 11 10 10 10 10 9 9 8 7 5 3 1 3 5 5 3 7 11 8 11 11 11 11 11 10 10
11 12 12 12 11 10 10 10 9 9 8 8 8 8 8 9 10 10 9 8 8 8 8 7 7 6 4 2 1 3 5 5 3 9 8 9 12 11 11 10 10 10 10
9 8 9 10 10 9 10 10 9 9 8 7 7 8 7 5 7 7 9 8 8 7 7 6 6 5 4 4 4 4 5 1 4 7 7 12 12 11 10 10 9 9 9
7 8 8 7 6 6 7 7 6 6 6 4 3 5 3 1 3 7 9 8 7 7 6 6 6 5 5 3 5 5 3 2 5 7 8 13 12 11 10 9 9 9 8
6 6 9 8 4 4 4 4 3 2 3 3 3 3 2 2 3 5 4 5 5 6 4 5 6 4 3 2 2 2 1 1 4 6 8 13 11 11 10 9 9 9 8
5 6 7 8 5 5 3 2 3 3 2 3 3 1 2 1 1 2 1 2 3 3 2 2 2 2 1 1 1 1 0 1 4 5 7 13 11 11 10 9 9 8 8
6 6 7 7 5 3 2 2 2 2 2 3 2 1 1 1 1 2 0 0 1 1 2 2 1 1 1 1 1 1 1 3 4 6 6 12 12 11 10 10 9 9 9
6 6 6 6 5 3 2 1 1 2 2 2 2 2 1 1 2 1 0 0 0 0 1 1 1 2 1 1 1 1 0 2 3 5 7 8 11 11 10 10 10 9 9
6 6 5 5 6 4 3 2 1 1 2 2 2 2 0 1 1 1 1 1 1 1 1 1 1 1 2 2 1 1 1 1 2 3 6 6 7 10 11 11 11 10 10
7 6 4 4 7 4 2 2 1 1 2 1 2 2 2 1 1 1 1 1 1 1 1 1 1 1 1 1 0 1 1 2 3 4 4 5 5 7 10 12 12 11 11
7 6 4 2 5 4 3 2 1 0 0 1 1 1 1 1 2 2 1 1 2 1 1 2 1 1 1 1 2 2 1 2 3 5 4 5 5 5 6 11 13 12 12
7 6 5 3 3 3 3 2 1 1 1 1 1 1 1 1 2 2 2 2 2 1 1 1 0 1 2 2 3 1 2 2 2 3 4 4 4 6 6 6 7 8 11
7 6 5 5 4 2 2 2 2 2 2 2 2 2 2 2 1 2 2 1 2 1 1 1 1 1 2 2 1 1 1 2 3 2 2 2 3 4 5 6 6 5 5
8 6 5 5 5 4 2 1 2 1 2 2 1 2 2 1 2 2 2 1 1 1 1 2 1 1 2 1 0 1 1 2 2 3 2 2 2 2 2 5 5 5 3
8 7 6 5 5 4 3 2 1 0 0 0 1 1 1 1 1 1 0 1 1 1 1 2 2 2 2 1 1 1 1 1 1 2 1 1 1 2 1 1 3 4 4
9 8 6 5 4 3 3 2 3 2 2 1 1 1 2 2 2 1 1 1 1 1 1 2 1 1 2 2 1 1 2 1 1 1 2 0 1 1 1 1 1 2 3
9 9 8 6 5 3 2 2 2 2 1 1 1 1 1 1 1 1 0 0 0 1 1 2 2 1 1 2 1 1 2 2 2 1 1 1 1 1 0 1 0 1 1
9 8 9 7 6 4 3 3 2 2 1 0 0 0 1 1 1 1 1 0 1 1 1 1 1 1 1 1 1 1 1 1 1 1 1 1 1 1 1 0 1 1 1
Wind_Direction
96 93 87 82 81 80 78 77 76 74 74 73 72 73 74 76 77 80 83 86 87 87 87 87 87 89 89 88 89 92 96 100 102 103 103 101 100 101 103 106 103 100 104
101 98 91 86 83 81 79 78 77 76 76 75 74 75 77 79 81 82 83 85 86 87 87 87 88 89 90 90 91 94 99 105 108 110 108 102 99 100 99 98 98 106 108
104 105 96 87 85 83 82 80 79 78 78 77 76 77 79 81 84 85 85 85 86 88 88 88 88 89 90 90 93 98 104 112 118 122 117 107 101 98 99 101 105 108 108
103 99 94 93 87 85 84 82 81 80 79 79 79 79 80 82 85 87 88 88 88 89 90 90 90 91 92 94 97 103 111 120 131 131 117 107 103 102 104 106 109 109 108
97 99 98 95 91 88 86 85 84 84 82 81 81 81 81 83 85 88 89 89 88 89 91 91 92 93 94 95 98 104 112 120 139 117 100 96 96 108 109 110 110 111 111
112 105 103 100 96 92 90 88 87 86 84 83 82 83 83 83 86 88 89 89 89 90 92 93 94 93 93 93 92 83 73 69 176 110 108 107 106 114 113 113 113 112 113
111 112 110 106 102 97 95 95 93 91 89 87 86 86 87 88 90 91 91 90 90 92 94 95 96 96 94 91 80 45 12 354 115 106 103 102 110 118 118 116 116 115 116
115 113 116 114 110 106 102 99 98 97 95 94 94 95 95 94 95 95 96 95 94 94 95 95 99 101 97 89 63 12 347 350 97 106 103 106 118 120 120 119 119 120 120
115 122 129 129 122 117 112 109 107 106 106 106 107 108 108 107 105 102 100 100 100 100 101 100 101 105 107 98 33 340 336 349 88 115 113 115 125 125 124 124 126 125 125
116 125 136 137 137 139 129 126 124 123 124 126 127 128 128 126 123 122 115 109 111 113 115 114 117 123 134 153 253 301 323 324 126 109 108 124 131 132 132 132 134 131 130
108 118 126 127 142 145 137 138 146 144 148 153 155 157 161 163 139 141 115 128 131 134 135 140 146 153 167 194 228 260 289 237 99 99 106 131 138 137 137 137 139 138 138
116 116 109 103 119 132 127 143 158 154 152 180 147 163 178 143 123 120 136 147 155 160 164 175 181 186 208 201 211 229 257 140 110 107 122 140 142 143 144 146 146 146 146
129 113 112 104 96 90 102 134 141 133 145 152 127 129 140 129 136 130 152 161 176 180 191 178 195 204 208 199 200 207 247 79 101 109 136 148 149 151 153 156 158 157 156
121 110 106 109 87 57 51 95 139 127 145 131 124 125 114 101 113 117 146 171 174 173 168 185 207 175 204 202 190 225 154 112 104 113 145 154 156 160 162 166 169 170 169
125 112 97 99 96 86 46 355 83 94 102 113 124 102 128 153 104 100 51 53 209 149 159 192 197 144 208 231 235 187 141 103 114 126 143 161 162 166 170 175 177 178 180
137 123 118 124 120 119 122 1 45 106 116 117 116 118 85 76 82 93 149 290 303 100 130 200 185 152 213 243 222 157 142 111 125 139 147 163 169 173 178 182 184 186 188
146 133 135 146 139 155 165 211 185 163 135 125 125 129 163 133 131 163 218 225 231 219 161 203 266 209 213 223 191 194 173 151 154 140 150 163 173 185 188 190 191 194 196
150 142 168 166 144 159 183 236 270 148 126 145 157 148 174 182 181 231 235 231 218 227 211 219 240 259 267 293 253 249 193 167 173 180 173 176 175 181 193 199 198 200 203
145 145 165 163 144 159 177 199 242 50 106 161 144 136 156 205 193 223 251 230 239 230 221 241 162 244 290 280 246 221 222 211 193 203 189 188 183 173 176 196 201 203 208
146 148 158 170 156 165 177 188 233 219 186 185 161 154 158 216 207 220 233 215 239 241 224 224 209 243 267 269 276 269 244 229 218 209 197 193 189 182 179 179 188 206 212
150 152 163 172 162 172 192 197 204 205 207 189 186 174 171 214 226 227 277 222 225 235 233 231 214 245 256 251 276 290 274 258 238 209 204 188 196 185 170 166 175 185 199
153 158 163 169 169 176 190 198 218 215 208 182 172 142 173 193 230 226 217 253 246 256 249 268 265 261 270 267 229 274 291 300 288 236 198 190 196 167 178 182 173 169 176
163 169 173 165 166 177 184 201 226 208 273 157 148 155 188 196 223 276 259 269 294 270 220 229 241 245 258 272 226 200 225 247 298 297 247 198 157 139 151 136 150 156 167
166 166 153 151 154 163 176 207 219 205 199 199 188 178 191 196 207 201 212 242 279 308 302 261 222 232 244 262 271 242 239 236 212 293 314 328 147 141 165 193 178 158 163
166 161 154 148 150 155 169 201 232 234 209 195 173 193 203 203 207 171 118 44 309 288 300 304 330 288 271 272 271 273 270 259 226 206 254 292 332 344 288 221 113 114 134
159 158 154 148 152 161 181 193 212 241 248 289 312 177 207 195 170 139 158 207 295 313 302 288 288 277 282 286 292 290 279 268 255 211 222 242 243 261 267 357 93 111 121